Latest Coastal Weather Observations for Willis Island

IDQ60701

Issued at 2:35 pm EST Tuesday 2 September 2014 (issued every 10 minutes, with the page automatically refreshed every 10 minutes)

About coastal observations | Map of coastal stations | Coastal observations for QLD | Marine services | Other Formats
Station Details ID: 200283 Name: WILLIS ISLAND Lat: -16.29 Lon: 149.97 Height: 9.29 m
Data from the previous 72 hours. | See also: Recent months at Willis Island
Date/Time
EST
Temp

°C
Wind Pressure Rain
since 9am
mm
Weather Cloud Vis
km
Sea
Height
m
Swell
Dir
 
Speed
knots
Gust
knots
hPa Trend Height
m
Period
s
Dir
02/02:30pm 24.8 S 15 18 1014.0 - 0.0 - - - - - - -
02/02:00pm 25.0 S 15 17 1014.3 - 0.0 - - - - - - -
02/01:30pm 26.0 S 12 15 1014.6 - 0.0 - - - - - - -
02/01:00pm 25.7 S 12 15 1015.0 - 0.0 - - - - - - -
02/12:30pm 25.4 S 14 16 1015.4 - 0.0 - - - - - - -
02/12:00pm 25.3 S 14 16 1015.7 F 0.0 Fine Partly cloudy 30 1 0.5 8 E
02/11:30am 25.4 SSE 13 15 1016.2 - 0.0 - - - - - - -
02/11:00am 25.2 S 15 17 1016.7 - 0.0 - - - - - - -
02/10:30am 24.9 S 14 16 1016.9 - 0.0 - - - - - - -
02/10:00am 24.8 SSE 14 16 1017.1 - 0.0 - - - - - - -
02/09:30am 24.8 SSE 14 16 1017.3 - 0.0 - - - - - - -
02/09:00am 24.7 SSE 14 17 1017.2 F 0.0 Fine Partly cloudy 30 1 0.8 8 E
02/08:30am 24.2 SSE 14 16 1017.1 - 0.0 - - - - - - -
02/08:00am 23.7 SSE 13 15 1017.1 - 0.0 - - - - - - -
02/07:30am 23.6 SSE 14 16 1016.5 - 0.0 - - - - - - -
02/07:00am 23.2 SSE 15 17 1016.1 - 0.0 - - - - - - -
02/06:30am 23.2 S 15 17 1016.3 - 0.0 - - - - - - -
02/06:00am 23.3 SSE 14 16 1016.0 F 0.0 Fine Mostly cloudy 30 1 0.8 8 E
02/05:30am 23.2 SSE 12 15 1015.9 - 0.0 - - - - - - -
02/05:00am 23.0 SSE 13 15 1015.6 - 0.0 - - - - - - -
02/04:30am 22.9 SE 13 16 1015.2 - 0.0 - - - - - - -
02/04:00am 22.9 SE 13 14 1015.4 - 0.0 - - - - - - -
02/03:30am 22.8 SE 13 15 1015.3 - 0.0 - - - - - - -
02/03:00am 22.9 SE 13 15 1015.4 - 0.0 - - - - - - -
02/02:30am 22.9 ESE 11 14 1015.5 - 0.0 - - - - - - -
02/02:00am 22.8 SE 12 14 1015.5 - 0.0 - - - - - - -
02/01:30am 22.9 SE 12 14 1015.9 - 0.0 - - - - - - -
02/01:00am 22.8 SE 13 15 1016.0 - 0.0 - - - - - - -
02/12:30am 22.9 SE 12 14 1016.3 - 0.0 - - - - - - -
02/12:00am 22.9 SE 12 13 1016.6 - 0.0 - - - - - - -
 
Date/Time
EST
Temp

°C
Wind Pressure Rain
since 9am
mm
Weather Cloud Vis
km
Sea
Height
m
Swell
Dir
 
Speed
knots
Gust
knots
hPa Trend Height
m
Period
s
Dir
01/11:30pm 23.0 SE 12 15 1016.9 - 0.0 - - - - - - -
01/11:00pm 23.1 ESE 13 15 1016.9 - 0.0 - - - - - - -
01/10:30pm 23.1 SE 13 15 1016.9 - 0.0 - - - - - - -
01/10:00pm 23.1 SE 14 16 1016.9 - 0.0 - - - - - - -
01/09:30pm 23.3 SE 15 18 1016.8 - 0.0 - - - - - - -
01/09:00pm 23.2 SE 16 18 1016.7 F 0.0 Fine Partly cloudy 30 1 - - -
01/08:30pm 23.4 SE 16 19 1016.5 - 0.0 - - - - - - -
01/08:00pm 23.4 SE 16 19 1016.1 - 0.0 - - - - - - -
01/07:30pm 23.2 SE 16 19 1016.0 - 0.0 - - - - - - -
01/07:00pm 23.2 SE 17 19 1015.8 - 0.0 - - - - - - -
01/06:30pm 23.3 SE 16 19 1015.5 - 0.0 - - - - - - -
01/06:00pm 23.2 ESE 15 18 1015.3 R 0.0 Fine Partly cloudy 30 1 1.0 10 SE
01/05:30pm 23.4 SE 17 19 1015.0 - 0.0 - - - - - - -
01/05:00pm 23.8 SE 16 19 1014.9 - 0.0 - - - - - - -
01/04:30pm 24.3 SE 16 19 1014.9 - 0.0 - - - - - - -
01/04:00pm 24.2 SE 16 18 1014.6 - 0.0 - - - - - - -
01/03:30pm 24.9 SE 16 18 1014.4 - 0.0 - - - - - - -
01/03:00pm 24.9 SE 16 19 1014.2 R 0.0 Fine Partly cloudy 30 2 1.0 10 SE
01/02:30pm 25.4 ESE 16 19 1014.1 - 0.0 - - - - - - -
01/02:00pm 25.5 ESE 17 19 1014.2 - 0.0 - - - - - - -
01/01:30pm 25.6 SE 18 21 1014.8 - 0.0 - - - - - - -
01/01:00pm 26.0 SE 17 20 1015.5 - 0.0 - - - - - - -
01/12:30pm 26.0 SE 18 21 1015.9 - 0.0 - - - - - - -
01/12:00pm 25.7 ESE 18 21 1015.7 F 0.0 Fine Partly cloudy 25 2 1.0 10 SE
01/11:30am 25.6 ESE 19 21 1016.2 - 0.0 - - - - - - -
01/11:00am 25.6 ESE 18 20 1016.2 - 0.0 - - - - - - -
01/10:30am 24.5 SE 18 21 1016.5 - 0.0 - - - - - - -
01/10:00am 25.3 ESE 17 20 1016.8 - 0.0 - - - - - - -
01/09:30am 25.0 ESE 17 19 1017.0 - 0.0 - - - - - - -
01/09:00am 24.9 ESE 18 20 1017.0 S 0.0 Fine Partly cloudy 25 1 1.0 8 SE
01/08:30am 24.0 SE 17 19 1016.9 - 0.0 - - - - - - -
01/08:00am 23.7 SE 16 18 1017.0 - 0.0 - - - - - - -
01/07:30am 23.5 SE 16 18 1016.6 - 0.0 - - - - - - -
01/07:00am 23.2 SE 17 20 1016.3 - 0.0 - - - - - - -
01/06:30am 23.2 SE 16 18 1015.9 - 0.0 - - - - - - -
01/06:00am 23.0 SE 17 20 1015.5 R 0.0 Fine Mostly cloudy 25 1 1.0 8 SE
01/05:30am 23.0 SE 17 20 1015.1 - 0.0 - - - - - - -
01/05:00am 22.7 SE 17 20 1014.8 - 0.0 - - - - - - -
01/04:30am 22.8 SE 19 22 1014.4 - 0.0 - - - - - - -
01/04:00am 23.0 SE 19 22 1014.3 - 0.0 - - - - - - -
01/03:30am 22.8 SE 18 21 1014.2 - 0.0 - - - - - - -
01/03:00am 22.8 SE 19 21 1014.1 - 0.0 - - - - - - -
01/02:30am 22.9 SE 19 21 1014.3 - 0.0 - - - - - - -
01/02:00am 22.9 SE 18 21 1014.4 - 0.0 - - - - - - -
01/01:30am 23.1 SE 18 21 1014.7 - 0.0 - - - - - - -
01/01:00am 23.1 SE 19 22 1015.1 - 0.0 - - - - - - -
01/12:30am 22.9 SE 21 24 1015.4 - 0.0 - - - - - - -
01/12:00am 23.4 ESE 20 23 1015.6 - 0.0 - - - - - - -
 
Date/Time
EST
Temp

°C
Wind Pressure Rain
since 9am
mm
Weather Cloud Vis
km
Sea
Height
m
Swell
Dir
 
Speed
knots
Gust
knots
hPa Trend Height
m
Period
s
Dir
31/11:30pm 23.4 SE 18 21 1015.8 - 0.0 - - - - - - -
31/11:00pm 23.3 SE 19 22 1015.8 - 0.0 - - - - - - -
31/10:30pm 23.4 SE 19 22 1016.0 - 0.0 - - - - - - -
31/10:00pm 23.6 ESE 20 23 1015.9 - 0.0 - - - - - - -
31/09:30pm 23.5 ESE 21 24 1016.0 - 0.0 - - - - - - -
31/09:00pm 23.7 SE 20 23 1015.8 R 0.0 Distant precip. Mostly cloudy 25 1 - - -
31/08:30pm 23.5 SE 21 24 1015.7 - 0.0 - - - - - - -
31/08:00pm 23.6 SE 20 24 1015.5 - 0.0 - - - - - - -
31/07:30pm 23.6 SE 21 24 1015.2 - 0.0 - - - - - - -
31/07:00pm 23.6 SE 22 25 1014.9 - 0.0 - - - - - - -
31/06:30pm 23.5 SE 21 25 1014.5 - 0.0 - - - - - - -
31/06:00pm 23.5 SE 22 26 1014.0 S 0.0 Distant precip. Mostly cloudy 30 2 1.0 10 SE
31/05:30pm 23.7 SE 21 25 1013.8 - 0.0 - - - - - - -
31/05:00pm 23.7 SE 21 24 1013.7 - 0.0 - - - - - - -
31/04:30pm 23.8 SE 21 24 1013.5 - 0.0 - - - - - - -
31/04:00pm 24.3 SE 20 23 1013.3 - 0.0 - - - - - - -
31/03:30pm 24.5 SE 20 23 1013.2 - 0.0 - - - - - - -
31/03:00pm 24.0 SSE 21 24 1013.2 R 0.0 Distant precip. Mostly cloudy 30 2 1.0 10 SE
31/02:30pm 24.4 SSE 21 24 1013.2 - 0.0 - - - - - - -
31/02:00pm 24.3 SSE 21 24 1013.3 - 0.0 - - - - - - -
31/01:30pm 24.1 SSE 20 23 1013.5 - 0.0 - - - - - - -
31/01:00pm 24.5 SSE 20 24 1013.8 - 0.0 - - - - - - -
31/12:30pm 24.7 SE 21 25 1014.1 - 0.0 - - - - - - -
31/12:00pm 24.8 SE 19 23 1014.6 F 0.0 Distant precip. Mostly cloudy 30 1 1.0 9 SE
31/11:30am 25.0 SSE 19 22 1015.0 - 0.0 - - - - - - -
31/11:00am 25.1 SE 19 22 1015.5 - 0.0 - - - - - - -
31/10:30am 24.5 SE 19 22 1015.6 - 0.0 - - - - - - -
31/10:00am 25.1 SE 18 21 1015.6 - 0.0 - - - - - - -
31/09:30am 24.1 SE 19 21 1015.9 - 0.0 - - - - - - -
31/09:00am 23.6 SE 19 21 1016.1 R 0.0 Distant precip. Mostly cloudy 25 1 1.0 9 SE
31/08:30am 23.6 SSE 19 22 1016.0 - 0.0 - - - - - - -
31/08:00am 23.4 SSE 19 22 1015.7 - 0.0 - - - - - - -
31/07:30am 23.1 SE 18 21 1015.4 - 0.0 - - - - - - -
31/07:00am 22.9 SSE 19 21 1015.1 - 0.0 - - - - - - -
31/06:30am 23.0 SE 19 21 1014.7 - 0.0 - - - - - - -
31/06:00am 22.8 SE 18 21 1014.4 F 0.0 Distant precip. Mostly cloudy 25 1 1.0 9 SE
31/05:30am 22.6 SE 18 21 1014.0 - 0.0 - - - - - - -
31/05:00am 22.5 SE 19 23 1013.8 - 0.0 - - - - - - -
31/04:30am 22.5 SE 18 21 1013.9 - 0.0 - - - - - - -
31/04:00am 22.2 SSE 18 21 1013.7 - 0.0 - - - - - - -
31/03:30am 22.7 SE 19 22 1013.8 - 0.0 - - - - - - -
31/03:00am 22.2 SSE 19 22 1013.9 - 0.0 - - - - - - -
31/02:30am 22.5 SSE 18 21 1014.1 - 0.0 - - - - - - -
31/02:00am 22.4 SE 20 23 1014.5 - 0.0 - - - - - - -
31/01:30am 22.4 SSE 15 18 1014.5 - 0.0 - - - - - - -
31/01:00am 22.0 SE 21 25 1014.8 - 0.0 - - - - - - -
31/12:30am 22.8 SE 19 22 1015.1 - 0.0 - - - - - - -
31/12:00am 22.6 SE 19 22 1015.6 - 0.0 - - - - - - -
 
Date/Time
EST
Temp

°C
Wind Pressure Rain
since 9am
mm
Weather Cloud Vis
km
Sea
Height
m
Swell
Dir
 
Speed
knots
Gust
knots
hPa Trend Height
m
Period
s
Dir
30/11:30pm 22.5 ESE 21 25 1015.8 - 0.0 - - - - - - -
30/11:00pm 22.8 SE 18 23 1015.9 - 0.0 - - - - - - -
30/10:30pm 22.4 SE 20 22 1016.0 - 0.0 - - - - - - -
30/10:00pm 22.6 SE 19 25 1016.1 - 0.0 - - - - - - -
30/09:30pm 22.8 SE 21 25 1016.4 - 0.0 - - - - - - -
30/09:00pm 23.2 SE 19 22 1016.3 F 0.0 Recent precip. Mostly cloudy 25 1 - - -
30/08:30pm 23.0 SE 20 23 1016.4 - 0.0 - - - - - - -
30/08:00pm 23.3 SE 19 22 1016.3 - 0.0 - - - - - - -
30/07:30pm 23.2 SE 20 23 1016.0 - 0.0 - - - - - - -
30/07:00pm 23.2 SE 20 23 1015.7 - 0.0 - - - - - - -
30/06:30pm 23.3 SE 20 23 1015.5 - 0.0 - - - - - - -
30/06:00pm 23.3 SE 20 23 1015.3 R 0.0 Distant precip. Mostly cloudy 25 2 1.5 9 SE
30/05:30pm 23.4 SE 19 22 1015.1 - 0.0 - - - - - - -
30/05:00pm 23.4 ESE 19 22 1014.6 - 0.0 - - - - - - -
30/04:30pm 24.0 SE 19 23 1014.4 - 0.0 - - - - - - -
30/04:00pm 24.1 SE 20 23 1014.4 - 0.0 - - - - - - -
30/03:30pm 24.6 SE 19 23 1014.1 - 0.0 - - - - - - -
30/03:00pm 24.9 SE 18 21 1014.1 R 0.0 Recent precip. Mostly cloudy 25 1 1.5 8 SE

Other Formats:

Comma delimited format used in spreadsheet applications
http://www.bom.gov.au/fwo/IDQ60701/IDQ60701.94299.axf

JavaScript Object Notation format (JSON) in row-major order
http://www.bom.gov.au/fwo/IDQ60701/IDQ60701.94299.json